| time (UTC) | temp F | wind direction | speed MPH | gust MPH | rain 1hr in | rain 24hr in | rain mn in | humidity % | barometer mb |
| 20260904150206 | 87 | 300 | 3.0 | 11.0 | 0.00 | 0.00 | 0.00 | 32 | 1012.2 |
| 20260904140207 | 89 | 211 | 0.0 | 10.0 | 0.00 | 0.00 | 0.00 | 32 | 1012.8 |
| 20260904110208 | 89 | 294 | 1.0 | 9.0 | 0.00 | 0.00 | 0.00 | 30 | 1014.7 |
| 20260904100206 | 85 | 165 | 0.0 | 3.0 | 0.00 | 0.00 | 0.00 | 34 | 1015.5 |
| 20260904090206 | 77 | 335 | 0.0 | 3.0 | 0.00 | 0.00 | 0.00 | 44 | 1015.9 |
| 20260904080205 | 70 | 118 | 0.0 | 1.0 | 0.00 | 0.00 | 0.00 | 58 | 1016.0 |
| 20260904060206 | 62 | 125 | 0.0 | 3.0 | 0.00 | 0.00 | 0.00 | 78 | 1016.3 |
| 20260904050206 | 62 | 120 | 0.0 | 1.0 | 0.00 | 0.00 | 0.00 | 79 | 1016.3 |
| 20260904040209 | 62 | 132 | 0.0 | 2.0 | 0.00 | 0.00 | 0.00 | 78 | 1016.6 |
| 20260904030207 | 63 | 127 | 0.0 | 0.0 | 0.00 | 0.00 | 0.00 | 76 | 1017.2 |
| 20260904020206 | 64 | 125 | 0.0 | 0.0 | 0.00 | 0.00 | 0.00 | 74 | 1017.4 |
| 20260904010223 | 65 | 123 | 0.0 | 0.0 | 0.00 | 0.00 | 0.00 | 72 | 1017.6 |
| 20260904000206 | 66 | 121 | 0.0 | 1.0 | 0.00 | 0.00 | 0.00 | 64 | 1017.7 |
| 20260903230208 | 68 | 161 | 0.0 | 0.0 | 0.00 | 0.00 | 0.00 | 61 | 1018.0 |
| 20260903220222 | 69 | 186 | 0.0 | 0.0 | 0.00 | 0.00 | 0.00 | 56 | 1018.3 |
| 20260903210206 | 70 | 207 | 0.0 | 0.0 | 0.00 | 0.00 | 0.00 | 55 | 1018.7 |
| 20260903200207 | 72 | 209 | 0.0 | 1.0 | 0.00 | 0.00 | 0.00 | 48 | 1018.7 |
| 20260903180209 | 76 | 321 | 0.0 | 0.0 | 0.00 | 0.00 | 0.00 | 41 | 1018.2 |
| 20260903170207 | 79 | 240 | 0.0 | 1.0 | 0.00 | 0.00 | 0.00 | 38 | 1018.2 |
| 20260903160205 | 80 | 301 | 2.0 | 12.0 | 0.00 | 0.00 | 0.00 | 35 | 1018.3 |